Weather History for Bangor, ME

Change the Weather History Date:

Saturday, May 11, 2013

  Actual Average Record
Temperature  
Mean Temperature 55 °F 52 °F  
Max Temperature 57 °F 64 °F 83 °F (2001)
Min Temperature 52 °F 41 °F 28 °F (1956)
Degree Days  
Heating Degree Days 10 13  
Month to date heating degree days 108 161  
Since 1 July heating degree days 7203 7559  
Cooling Degree Days 0 0  
Month to date cooling degree days 0 0  
Year to date cooling degree days 0 0  
Growing Degree Days 4 (Base 50)    
Moisture  
Dew Point 53 °F    
Average Humidity 95    
Maximum Humidity 100    
Minimum Humidity 89    
Precipitation  
Precipitation 0.21 in 0.11 in 1.49 in (1989)
Month to date precipitation 0.60 1.24  
Year to date precipitation 7.33 13.65  
Snow  
Snow 0.00 in 0.00 in 3.80 in (1963)
Month to date snowfall 0.0 0.1  
Since 1 July snowfall 74.3 66.2  
Snow Depth 0.00 in    
Sea Level Pressure  
Sea Level Pressure 29.81 in    
Wind  
Wind Speed 8 mph (SSE)    
Max Wind Speed 21 mph    
Max Gust Speed 25 mph    
Visibility 7 miles    
Events Rain    
T = Trace of Precipitation, MM = Missing Value Source: NWS Daily Summary

Daily Weather History Graph

Daily Weather History Graph

Search for Another Location

Airport:

Trip Planner

Search our weather history database for the weather conditions in past years. The results will help you decide how hot, cold, wet, or windy it might be!

Date:

Astronomy

May. 11, 2013 Rise Set
Actual Time 5:11 AM EDT 7:52 PM EDT
Civil Twilight 4:37 AM EDT 8:26 PM EDT
Nautical Twilight 3:55 AM EDT 9:08 PM EDT
Astronomical Twilight 3:06 AM EDT 9:57 PM EDT
Moon 6:15 AM EDT (5/11) 9:31 PM EDT (5/11)
Length of Visible Light 15h 48m
Length of Day
14h 41m
Waxing Crescent, 3% of the Moon is Illuminated
May 11
Waxing Crescent
May 18
First Quarter
May 25
Full
May 31
Last Quarter
Jun 8
New

Hourly Weather History & Observations

Time (EDT) Temp. Dew Point Humidity Pressure Visibility Wind Dir Wind Speed Gust Speed Precip Events Conditions
12:32 AM 53.6 °F 51.8 °F 94% 29.95 in 10.0 mi SSE 6.9 mph - N/A   Overcast
12:53 AM 54.0 °F 52.0 °F 93% 29.94 in 10.0 mi SE 4.6 mph - N/A   Overcast
1:39 AM 53.6 °F 51.8 °F 94% 29.94 in 10.0 mi SSW 3.5 mph - N/A   Overcast
1:53 AM 53.1 °F 52.0 °F 96% 29.94 in 10.0 mi Calm Calm - N/A   Overcast
2:21 AM 53.6 °F 51.8 °F 94% 29.94 in 10.0 mi SSW 3.5 mph - N/A   Overcast
2:53 AM 53.1 °F 52.0 °F 96% 29.92 in 8.0 mi SSE 6.9 mph - 0.02 in Rain Light Rain
3:49 AM 53.6 °F 53.6 °F 100% 29.90 in 10.0 mi SE 4.6 mph - 0.00 in   Overcast
3:53 AM 53.1 °F 53.1 °F 100% 29.89 in 10.0 mi ESE 4.6 mph - 0.00 in   Overcast
4:50 AM 53.6 °F 53.6 °F 100% 29.88 in 10.0 mi South 5.8 mph - N/A   Overcast
4:53 AM 53.1 °F 53.1 °F 100% 29.88 in 10.0 mi South 4.6 mph - N/A   Overcast
5:09 AM 53.6 °F 53.6 °F 100% 29.88 in 10.0 mi SSE 6.9 mph - N/A   Overcast
5:46 AM 53.6 °F 51.8 °F 94% 29.88 in 10.0 mi SSE 12.7 mph - N/A   Overcast
5:53 AM 53.1 °F 51.1 °F 93% 29.87 in 10.0 mi SE 12.7 mph - N/A   Mostly Cloudy
6:53 AM 52.0 °F 50.0 °F 93% 29.88 in 10.0 mi SE 13.8 mph - N/A   Overcast
7:53 AM 52.0 °F 50.0 °F 93% 29.86 in 10.0 mi SSE 9.2 mph - N/A   Overcast
8:53 AM 53.1 °F 50.0 °F 89% 29.83 in 10.0 mi SE 8.1 mph - N/A   Mostly Cloudy
9:53 AM 53.1 °F 51.1 °F 93% 29.83 in 5.0 mi SSE 9.2 mph - 0.01 in Rain Light Rain
10:53 AM 53.1 °F 51.1 °F 93% 29.79 in 8.0 mi SSE 13.8 mph 18.4 mph 0.03 in Rain Light Rain
11:31 AM 53.6 °F 53.6 °F 100% 29.81 in 1.8 mi South 16.1 mph 23.0 mph 0.07 in Rain Heavy Rain
11:43 AM 53.6 °F 53.6 °F 100% 29.80 in 3.0 mi South 12.7 mph - 0.08 in Rain Light Rain
11:53 AM 54.0 °F 53.1 °F 97% 29.79 in 5.0 mi SSE 12.7 mph 18.4 mph 0.09 in Rain Light Rain
12:27 PM 53.6 °F 53.6 °F 100% 29.78 in 2.0 mi South 10.4 mph - 0.00 in   Overcast
12:53 PM 55.0 °F 54.0 °F 96% 29.77 in 3.0 mi SSE 12.7 mph 20.7 mph 0.00 in   Overcast
1:53 PM 55.9 °F 54.0 °F 93% 29.75 in 7.0 mi South 15.0 mph - N/A   Overcast
2:53 PM 55.0 °F 54.0 °F 96% 29.75 in 5.0 mi South 10.4 mph - N/A   Overcast
3:53 PM 55.9 °F 54.0 °F 93% 29.74 in 4.0 mi South 11.5 mph - N/A   Overcast
4:40 PM 55.4 °F 55.4 °F 100% 29.73 in 3.0 mi South 8.1 mph - 0.01 in Rain Light Rain
4:53 PM 55.9 °F 55.0 °F 97% 29.72 in 4.0 mi South 6.9 mph - 0.01 in Rain Light Rain
5:19 PM 55.4 °F 55.4 °F 100% 29.72 in 4.0 mi South 9.2 mph - 0.00 in Rain Light Rain
5:53 PM 55.9 °F 55.0 °F 97% 29.70 in 4.0 mi SSE 13.8 mph - 0.00 in   Overcast
6:53 PM 55.0 °F 54.0 °F 96% 29.70 in 4.0 mi South 12.7 mph 20.7 mph 0.01 in   Overcast
7:53 PM 55.0 °F 54.0 °F 96% 29.69 in 4.0 mi South 12.7 mph 19.6 mph 0.02 in   Overcast
8:53 PM 55.9 °F 55.0 °F 97% 29.69 in 4.0 mi South 10.4 mph - N/A   Overcast
9:53 PM 55.0 °F 55.0 °F 100% 29.70 in 3.0 mi South 11.5 mph - 0.02 in Rain Light Rain
10:53 PM 57.0 °F 55.9 °F 96% 29.70 in 3.0 mi SSW 6.9 mph - 0.00 in Rain Light Rain
11:53 PM 55.9 °F 55.9 °F 100% 29.69 in 3.0 mi South 11.5 mph - 0.00 in   Overcast